Regional Weather Roundup
Issued by NWS

Home | Current Version | Previous Version | Graphics & Text | Print | Product List | Glossary On
Versions: 1 2 3 4 5 6 7 8 9 10 11 12 13 14 15 16 17 18 19 20 21 22 23 24 25 26 27 28 29 30 31 32 33 34 35 36 37 38 39 40 41 42 43 44 45 46 47 48 49 50
000
ASUS43 KLMK 181602
RWRKY
KENTUCKY REGIONAL WEATHER ROUNDUP
NATIONAL WEATHER SERVICE LOUISVILLE KY
1100 AM EST MON DEC 18 2017

NOTE "FAIR" INDICATES FEW OR NO CLOUDS BELOW 12,000 FEET
WITH NO SIGNIFICANT WEATHER AND/OR OBSTRUCTIONS TO VISIBILITY.

KYZ001>023-026-027-061>063-070>075-181700-
WESTERN AND SOUTH CENTRAL KENTUCKY

CITY           SKY/WX    TMP DP  RH WIND       PRES   REMARKS
PADUCAH        CLOUDY    47  43  86 SW7       30.16R
HENDERSON      CLOUDY    46  44  93 SW12      30.14F
OWENSBORO      CLOUDY    46  44  93 SW7       30.15F FOG
HOPKINSVILLE   NOT AVBL
BOWLING GREEN  CLOUDY    49  47  93 SW7       30.17R
GLASGOW        NOT AVBL
$$

KYZ024-025-028>034-038-045-046-053-181700-
NORTH CENTRAL KENTUCKY

CITY           SKY/WX    TMP DP  RH WIND       PRES   REMARKS
LOUISVILLE/SDF CLOUDY    48  44  86 SW6       30.13S
LOUISVILLE/LOU CLOUDY    47  46  97 S6        30.14R FOG
FORT KNOX      CLOUDY    46  46 100 SW8       30.12S
$$

KYZ035>037-039>044-047>052-055>060-089>105-181700-
NORTHEAST KENTUCKY

CITY           SKY/WX    TMP DP  RH WIND       PRES   REMARKS
LEXINGTON      CLOUDY    47  44  90 SW12      30.13S
COVINGTON      CLOUDY    44  44 100 SW10      30.10S FOG
FRANKFORT      CLOUDY    48  43  82 SW9       30.12R
$$

KYZ054-064>069-076>088-106>120-181700-
SOUTHEAST KENTUCKY

CITY           SKY/WX    TMP DP  RH WIND       PRES   REMARKS
JACKSON        CLOUDY    47  45  93 VRB5      30.14F
LONDON         CLOUDY    47  46  97 SW8       30.16S FOG
SOMERSET       CLOUDY    45  45 100 S3        30.17F FOG
MIDDLESBORO    CLOUDY    44  43  96 CALM      30.19R
MONTICELLO     CLOUDY    49  47  93 W15       30.17F
$$





USA.gov is the U.S. government's official web portal to all federal, state and local government web resources and services.